EW4271 Weather Reports


Display with metric or nautical units.
time (UTC)temp
F
wind
direction
speed
MPH
gust
MPH
rain 1hr
in
rain 24hr
in
rain mn
in
humidity
%
barometer
mb
20260904050621 61 105 0.0 0.0 0.00 0.20 0.20 76 1025.2
20260904050136 61 105 0.0 0.0 0.00 0.20 0.20 76 1025.1
20260904045610 61 105 0.0 0.0 0.00 0.20 0.20 74 1025.1
20260904045108 62 105 0.0 0.0 0.00 0.20 0.20 77 1025.2
20260904044602 62 105 0.0 0.0 0.00 0.20 0.20 75 1025.2
20260904044117 62 105 0.0 0.0 0.00 0.20 0.20 74 1025.3
20260904043611 62 105 0.0 0.0 0.00 0.20 0.20 73 1025.2
20260904043105 63 105 0.0 0.0 0.00 0.20 0.20 70 1025.3
20260904042639 63 105 0.0 0.0 0.00 0.20 0.20 70 1025.4
20260904042112 63 105 0.0 0.0 0.00 0.20 0.20 72 1025.3
20260904041606 63 105 0.0 0.0 0.00 0.20 0.20 70 1025.3
20260904041104 63 105 0.0 0.0 0.00 0.20 0.20 69 1025.3
20260904040618 63 105 0.0 0.0 0.00 0.20 0.20 69 1025.3
20260904040112 63 105 0.0 0.0 0.00 0.20 0.20 68 1025.3
20260904035606 64 105 0.0 0.0 0.00 0.20 0.20 71 1025.3
20260904035120 64 105 0.0 0.0 0.00 0.20 0.20 71 1025.3
20260904034635 65 105 0.0 0.0 0.00 0.20 0.20 70 1025.1
20260904034107 65 230 0.0 0.0 0.00 0.20 0.20 69 1025.0
20260904033603 65 230 0.0 0.0 0.00 0.20 0.20 68 1025.0
20260904033116 66 230 0.0 0.0 0.00 0.20 0.20 68 1025.0
20260904032614 66 230 0.0 0.0 0.00 0.20 0.20 67 1025.0
20260904032108 66 230 0.0 0.0 0.00 0.20 0.20 65 1024.9
20260904031603 67 230 0.0 3.0 0.00 0.20 0.20 63 1024.9
20260904031117 67 230 1.0 3.0 0.00 0.20 0.20 57 1024.8
20260904030631 67 244 2.0 3.0 0.00 0.20 0.20 56 1024.8
20260904030105 67 233 2.0 4.0 0.00 0.20 0.20 57 1024.7
20260904025619 67 257 1.0 6.0 0.00 0.20 0.20 58 1024.7
20260904025134 66 238 2.0 6.0 0.00 0.20 0.20 56 1024.6
20260904024611 66 328 2.0 3.0 0.00 0.20 0.20 60 1024.5
20260904024104 66 243 2.0 4.0 0.00 0.20 0.20 61 1024.5
20260904023618 66 348 0.0 7.0 0.00 0.20 0.20 60 1024.5
20260904023132 66 291 2.0 7.0 0.00 0.20 0.20 62 1024.3
20260904022605 65 247 4.0 8.0 0.00 0.20 0.20 65 1024.2
20260904022120 65 19 3.0 11.0 0.00 0.20 0.20 64 1024.2
20260904021614 65 318 3.0 11.0 0.00 0.20 0.20 65 1024.1
20260904021107 64 350 3.0 9.0 0.00 0.20 0.20 68 1024.1
20260904020621 64 289 4.0 9.0 0.00 0.20 0.20 67 1024.1
20260904020135 63 48 3.0 8.0 0.00 0.20 0.20 69 1024.3
20260904015611 63 337 4.0 9.0 0.00 0.20 0.20 72 1024.2
20260904015106 63 5 0.0 7.0 0.00 0.20 0.20 75 1024.1
20260904014620 62 79 0.0 5.0 0.00 0.20 0.20 82 1024.1
20260904014115 62 229 0.0 2.0 0.00 0.20 0.20 85 1024.2
20260904013607 62 223 0.0 2.0 0.00 0.20 0.20 85 1024.1
20260904013102 62 5 0.0 3.0 0.04 0.20 0.20 85 1024.0
20260904012616 61 51 0.0 3.0 0.20 0.20 0.20 84 1023.9
20260904012114 61 89 0.0 4.0 0.20 0.20 0.20 85 1023.9
20260904011628 61 129 1.0 4.0 0.20 0.20 0.20 89 1023.8
20260904011142 61 227 0.0 0.0 0.20 0.20 0.20 88 1023.7
20260904010613 61 227 0.0 2.0 0.20 0.20 0.20 87 1023.6
20260904010127 62 227 0.0 3.0 0.20 0.20 0.20 86 1023.7
20260904005621 62 222 2.0 3.0 0.20 0.20 0.20 84 1023.6
20260904005115 63 302 0.0 1.0 0.20 0.20 0.20 81 1023.6
20260904004608 64 302 0.0 2.0 0.20 0.20 0.20 76 1023.6
20260904004103 66 277 1.0 3.0 0.20 0.20 0.20 73 1023.9
20260904003615 70 92 0.0 4.0 0.20 0.20 0.20 60 1023.9
20260904003114 74 98 2.0 5.0 0.16 0.16 0.16 58 1024.6
20260904002608 78 199 1.0 5.0 0.00 0.00 0.00 44 1023.7
20260904002121 79 153 0.0 1.0 0.00 0.00 0.00 34 1023.2
20260904001636 79 153 0.0 2.0 0.00 0.00 0.00 33 1023.0
20260904001110 80 126 0.0 7.0 0.00 0.00 0.00 32 1023.1
20260904000604 80 148 3.0 9.0 0.00 0.00 0.00 31 1023.0
20260904000138 80 130 4.0 9.0 0.00 0.00 0.00 31 1023.0
20260903235610 81 150 0.0 5.0 0.00 0.00 0.00 32 1023.1
20260903235109 80 192 2.0 5.0 0.00 0.00 0.00 32 1023.0
20260903234623 80 148 1.0 6.0 0.00 0.00 0.00 32 1023.0
20260903234115 80 148 2.0 6.0 0.00 0.00 0.00 31 1023.0
20260903233610 80 167 1.0 9.0 0.00 0.00 0.00 32 1023.1
20260903233103 80 30 3.0 9.0 0.00 0.00 0.00 31 1023.1
20260903232617 81 38 1.0 4.0 0.00 0.00 0.00 32 1023.1
20260903232131 81 130 1.0 3.0 0.00 0.00 0.00 31 1023.1
20260903231605 81 130 1.0 5.0 0.00 0.00 0.00 30 1023.2
20260903231117 81 130 1.0 7.0 0.00 0.00 0.00 30 1023.2
20260903230611 81 136 3.0 7.0 0.00 0.00 0.00 29 1023.2
20260903230108 81 224 1.0 3.0 0.00 0.00 0.00 30 1023.2
20260903225643 81 351 1.0 3.0 0.00 0.00 0.00 30 1023.3
20260903225115 81 153 0.0 5.0 0.00 0.00 0.00 30 1023.3
20260903224609 81 153 1.0 5.0 0.00 0.00 0.00 30 1023.3
20260903224103 81 159 0.0 5.0 0.00 0.00 0.00 30 1023.4
20260903223637 81 281 0.0 5.0 0.00 0.00 0.00 30 1023.4
20260903223111 81 314 2.0 6.0 0.00 0.00 0.00 29 1023.4
20260903222604 82 309 2.0 6.0 0.00 0.00 0.00 28 1023.4
20260903222119 83 330 1.0 3.0 0.00 0.00 0.00 28 1023.5
20260903221618 83 153 1.0 5.0 0.00 0.00 0.00 28 1023.5
20260903221110 82 152 3.0 5.0 0.00 0.00 0.00 29 1023.5
20260903220625 82 276 1.0 5.0 0.00 0.00 0.00 31 1023.6
20260903220139 81 52 2.0 5.0 0.00 0.00 0.00 29 1023.6
20260903215632 81 153 2.0 5.0 0.00 0.00 0.00 29 1023.6
20260903215104 81 27 1.0 5.0 0.00 0.00 0.00 32 1023.7
20260903214619 81 60 2.0 4.0 0.00 0.00 0.00 30 1023.7
20260903214113 81 69 1.0 4.0 0.00 0.00 0.00 30 1023.8
20260903213606 81 25 1.0 4.0 0.00 0.00 0.00 30 1023.9
20260903213140 81 244 2.0 4.0 0.00 0.00 0.00 30 1023.9
20260903212615 81 289 2.0 6.0 0.00 0.00 0.00 30 1024.0
20260903212113 80 172 2.0 5.0 0.00 0.00 0.00 31 1024.0
20260903211605 80 303 1.0 4.0 0.00 0.00 0.00 31 1024.1
20260903211140 79 81 1.0 5.0 0.00 0.00 0.00 32 1024.3
20260903210613 79 257 1.0 3.0 0.00 0.00 0.00 33 1024.4
20260903210126 79 132 2.0 3.0 0.00 0.00 0.00 33 1024.5
20260903205620 79 242 1.0 6.0 0.00 0.00 0.00 31 1024.6
20260903205113 80 30 3.0 6.0 0.00 0.00 0.00 30 1024.6
20260903204608 81 37 2.0 7.0 0.00 0.00 0.00 31 1024.5
20260903204102 81 209 2.0 4.0 0.00 0.00 0.00 30 1024.6
20260903203620 80 134 1.0 5.0 0.00 0.00 0.00 32 1024.6
20260903203113 79 157 0.0 4.0 0.00 0.00 0.00 32 1024.6
20260903202607 80 64 2.0 4.0 0.00 0.00 0.00 30 1024.7
20260903202121 81 98 2.0 6.0 0.00 0.00 0.00 29 1024.8
20260903201616 81 153 3.0 8.0 0.00 0.00 0.00 30 1024.8
20260903201110 80 127 3.0 8.0 0.00 0.00 0.00 31 1024.9
20260903200604 81 121 3.0 7.0 0.00 0.00 0.00 29 1024.9
20260903200116 81 142 2.0 3.0 0.00 0.00 0.00 30 1025.0
20260903195614 81 293 1.0 5.0 0.00 0.00 0.00 30 1025.2
20260903195108 81 294 2.0 5.0 0.00 0.00 0.00 30 1025.3
20260903194602 81 355 2.0 7.0 0.00 0.00 0.00 31 1025.3
20260903194136 81 118 3.0 7.0 0.00 0.00 0.00 30 1025.3
20260903193630 80 78 2.0 4.0 0.00 0.00 0.00 31 1025.4
20260903193103 80 90 2.0 6.0 0.00 0.00 0.00 30 1025.5
20260903192617 79 238 3.0 6.0 0.00 0.00 0.00 32 1025.5
20260903192111 78 203 2.0 5.0 0.00 0.00 0.00 32 1025.7
20260903191605 78 329 1.0 5.0 0.00 0.00 0.00 32 1025.7
20260903191104 78 71 2.0 6.0 0.00 0.00 0.00 32 1025.9
20260903190619 78 230 3.0 6.0 0.00 0.00 0.00 32 1026.0
20260903190113 77 205 2.0 4.0 0.00 0.00 0.00 34 1026.0
20260903185626 77 310 1.0 4.0 0.00 0.00 0.00 35 1026.0
20260903185141 77 180 0.0 3.0 0.00 0.00 0.00 35 1026.0
20260903184613 77 297 1.0 3.0 0.00 0.00 0.00 35 1026.2
20260903184107 77 231 0.0 4.0 0.00 0.00 0.00 35 1026.4
20260903183621 78 315 2.0 7.0 0.00 0.00 0.00 34 1026.4
20260903183115 77 158 2.0 5.0 0.00 0.00 0.00 36 1026.4
20260903182612 77 128 2.0 4.0 0.00 0.00 0.00 36 1026.5
20260903182126 77 346 2.0 7.0 0.00 0.00 0.00 36 1026.6
20260903181640 77 160 1.0 7.0 0.00 0.00 0.00 36 1026.6
20260903181112 78 298 2.0 4.0 0.00 0.00 0.00 34 1026.7
20260903180626 78 312 2.0 7.0 0.00 0.00 0.00 34 1026.7
20260903180119 78 174 2.0 8.0 0.00 0.00 0.00 36 1026.7
20260903175613 78 131 3.0 8.0 0.00 0.00 0.00 36 1026.8
20260903175127 77 134 1.0 4.0 0.00 0.00 0.00 38 1026.8
20260903174640 77 189 2.0 4.0 0.00 0.00 0.00 35 1026.8
20260903174113 77 59 2.0 9.0 0.00 0.00 0.00 35 1026.9
20260903173611 77 153 4.0 9.0 0.00 0.00 0.00 35 1027.0
20260903173104 76 139 1.0 5.0 0.00 0.00 0.00 38 1026.9
20260903172639 75 90 2.0 8.0 0.00 0.00 0.00 40 1027.0
20260903172111 75 122 3.0 8.0 0.00 0.00 0.00 38 1027.1
20260903171606 75 38 3.0 5.0 0.00 0.00 0.00 39 1027.1
20260903171140 74 38 2.0 6.0 0.00 0.00 0.00 39 1027.1
20260903170613 74 35 4.0 6.0 0.00 0.00 0.00 39 1027.0
20260903170107 75 116 1.0 5.0 0.00 0.00 0.00 38 1027.0
20260903165642 75 188 2.0 6.0 0.00 0.00 0.00 38 1027.0
20260903165115 76 155 2.0 6.0 0.00 0.00 0.00 37 1027.0
20260903164613 76 142 1.0 4.0 0.00 0.00 0.00 38 1027.0
20260903164107 76 142 2.0 7.0 0.00 0.00 0.00 38 1027.0
20260903163619 76 136 2.0 7.0 0.00 0.00 0.00 37 1027.0
20260903163114 76 145 2.0 8.0 0.00 0.00 0.00 37 1026.9
20260903162607 76 221 4.0 8.0 0.00 0.00 0.00 38 1026.9
20260903162121 75 143 3.0 6.0 0.00 0.00 0.00 38 1026.9
20260903161615 75 31 1.0 6.0 0.00 0.00 0.00 42 1026.9
20260903161109 74 214 4.0 8.0 0.00 0.00 0.00 35 1026.7
20260903160608 74 60 5.0 8.0 0.00 0.00 0.00 39 1026.5
20260903160142 74 28 3.0 8.0 0.00 0.00 0.00 41 1026.5
20260903155614 73 134 1.0 6.0 0.00 0.00 0.00 41 1026.6
20260903155108 74 157 2.0 6.0 0.00 0.00 0.00 38 1026.7
20260903154602 73 148 2.0 6.0 0.00 0.00 0.00 39 1026.7
20260903154116 72 171 2.0 5.0 0.00 0.00 0.00 41 1026.8
20260903153610 72 90 1.0 4.0 0.00 0.00 0.00 46 1026.8
20260903153125 71 225 2.0 4.0 0.00 0.00 0.00 45 1026.8
20260903152618 70 44 0.0 4.0 0.00 0.00 0.00 48 1026.8
20260903152116 69 147 1.0 4.0 0.00 0.00 0.00 49 1026.9
20260903151609 68 147 1.0 5.0 0.00 0.00 0.00 49 1027.0
20260903151124 67 183 1.0 4.0 0.00 0.00 0.00 51 1026.9
20260903150616 67 53 1.0 4.0 0.00 0.00 0.00 51 1026.9
20260903150110 66 49 0.0 0.0 0.00 0.00 0.00 51 1027.0
20260903145604 66 94 0.0 0.0 0.00 0.00 0.00 55 1027.0
20260903145118 66 94 0.0 0.0 0.00 0.00 0.00 54 1027.0
20260903144611 66 94 0.0 0.0 0.00 0.00 0.00 52 1027.1
20260903144109 65 94 0.0 0.0 0.00 0.00 0.00 55 1027.0
20260903143603 65 80 0.0 1.0 0.00 0.00 0.00 55 1027.0
20260903143118 65 80 0.0 2.0 0.00 0.00 0.00 54 1026.9
20260903142632 65 61 1.0 3.0 0.00 0.00 0.00 53 1026.9
20260903142105 65 161 1.0 3.0 0.00 0.00 0.00 53 1026.8
20260903141618 65 161 1.0 2.0 0.00 0.00 0.00 57 1026.8
20260903141132 65 5 0.0 7.0 0.00 0.00 0.00 54 1026.7
20260903140605 64 140 2.0 7.0 0.00 0.00 0.00 53 1026.7
20260903140120 64 195 2.0 5.0 0.00 0.00 0.00 54 1026.6
20260903135618 63 126 2.0 5.0 0.00 0.00 0.00 58 1026.6
20260903135112 63 95 1.0 4.0 0.00 0.00 0.00 62 1026.5
20260903134627 62 96 0.0 0.0 0.00 0.00 0.00 61 1026.5
20260903134119 61 41 0.0 0.0 0.00 0.00 0.00 68 1026.6
20260903133613 61 41 0.0 0.0 0.00 0.00 0.00 66 1026.5
20260903133108 61 41 0.0 0.0 0.00 0.00 0.00 67 1026.5
20260903132642 60 41 0.0 0.0 0.00 0.00 0.00 69 1026.4
20260903132137 59 47 0.0 0.0 0.00 0.00 0.00 71 1026.4
20260903131609 58 43 0.0 0.0 0.00 0.00 0.00 72 1026.2
20260903131121 57 43 0.0 2.0 0.00 0.00 0.00 71 1026.2
20260903130619 57 43 1.0 2.0 0.00 0.00 0.00 71 1026.2
20260903130114 57 43 0.0 4.0 0.00 0.00 0.00 71 1026.1
20260903125628 57 320 0.0 0.0 0.00 0.00 0.00 71 1026.1
20260903125103 57 286 0.0 0.0 0.00 0.00 0.00 70 1026.0
20260903124617 57 261 0.0 0.0 0.00 0.00 0.00 68 1026.0
20260903124111 57 274 0.0 0.0 0.00 0.00 0.00 69 1026.0
20260903123606 57 274 0.0 0.0 0.00 0.00 0.00 69 1026.0
20260903123121 57 271 0.0 0.0 0.00 0.00 0.00 70 1026.0
20260903122614 57 271 0.0 0.0 0.00 0.00 0.00 68 1025.9
20260903122111 57 340 0.0 0.0 0.00 0.00 0.00 69 1025.9
20260903121605 57 340 0.0 0.0 0.00 0.00 0.00 70 1025.9
20260903121119 57 340 0.0 0.0 0.00 0.00 0.00 69 1025.7
20260903120634 57 340 0.0 0.0 0.00 0.00 0.00 69 1025.9
20260903120128 57 340 0.0 0.0 0.00 0.00 0.00 69 1025.8
20260903115621 57 257 0.0 0.0 0.00 0.00 0.00 69 1025.7
20260903115115 57 257 0.0 0.0 0.00 0.00 0.00 70 1025.7
20260903114610 57 257 0.0 0.0 0.00 0.00 0.00 69 1025.8
20260903114108 57 257 0.0 2.0 0.00 0.00 0.00 68 1025.8
20260903113602 56 257 1.0 2.0 0.00 0.00 0.00 68 1025.7
20260903113116 57 293 0.0 0.0 0.00 0.00 0.00 70 1025.7
20260903112610 57 271 0.0 0.0 0.00 0.00 0.00 67 1025.7
20260903112125 57 271 0.0 0.0 0.00 0.00 0.00 70 1025.8
20260903111617 57 271 0.0 0.0 0.00 0.00 0.00 68 1025.7
20260903111113 56 271 0.0 0.0 0.00 0.00 0.00 68 1025.7
20260903110606 56 271 0.0 0.0 0.00 0.00 0.00 69 1025.6
20260903110105 57 271 0.0 0.0 0.00 0.00 0.00 69 1025.6
20260903105619 57 271 0.0 0.0 0.00 0.00 0.00 67 1025.6
20260903105113 56 271 0.0 0.0 0.00 0.00 0.00 67 1025.5
20260903104607 56 271 0.0 0.0 0.00 0.00 0.00 68 1025.6
20260903104101 56 271 0.0 0.0 0.00 0.00 0.00 69 1025.6
20260903103617 56 271 0.0 0.0 0.00 0.00 0.00 69 1025.5
20260903103110 56 271 0.0 0.0 0.00 0.00 0.00 69 1025.5
20260903102605 56 271 0.0 0.0 0.00 0.00 0.00 67 1025.5
20260903102103 56 271 0.0 0.0 0.00 0.00 0.00 67 1025.4
20260903101616 56 271 0.0 0.0 0.00 0.00 0.00 68 1025.4
20260903101110 56 271 0.0 0.0 0.00 0.00 0.00 67 1025.3
20260903100604 56 271 0.0 0.0 0.00 0.00 0.00 66 1025.3
20260903100118 56 271 0.0 0.0 0.00 0.00 0.00 65 1025.3
20260903095613 56 271 0.0 0.0 0.00 0.00 0.00 65 1025.3
20260903095106 56 271 0.0 0.0 0.00 0.00 0.00 64 1025.2
20260903094603 56 271 0.0 0.0 0.00 0.00 0.00 62 1025.3
20260903094117 56 271 0.0 0.0 0.00 0.00 0.00 63 1025.4
20260903093610 56 271 0.0 0.0 0.00 0.00 0.00 61 1025.3
20260903093103 57 271 0.0 0.0 0.00 0.00 0.00 61 1025.4
20260903092618 57 271 0.0 0.0 0.00 0.00 0.00 61 1025.3
20260903092111 57 271 0.0 0.0 0.00 0.00 0.00 58 1025.4
20260903091605 57 271 0.0 0.0 0.00 0.00 0.00 58 1025.4
20260903091119 57 271 0.0 0.0 0.00 0.00 0.00 62 1025.4
20260903090614 58 271 0.0 1.0 0.00 0.00 0.00 58 1025.5
20260903090110 58 271 0.0 2.0 0.00 0.00 0.00 59 1025.5
20260903085604 58 271 1.0 2.0 0.00 0.00 0.00 58 1025.5
20260903085118 58 271 0.0 2.0 0.00 0.00 0.00 58 1025.5
20260903084612 58 271 1.0 2.0 0.00 0.00 0.00 58 1025.5
20260903084126 58 271 0.0 0.0 0.00 0.00 0.00 58 1025.5
20260903083619 59 271 0.0 0.0 0.00 0.00 0.00 59 1025.5
20260903083113 59 260 0.0 3.0 0.00 0.00 0.00 55 1025.5
20260903082606 59 260 1.0 3.0 0.00 0.00 0.00 56 1025.5
20260903082105 59 47 1.0 3.0 0.00 0.00 0.00 57 1025.5
20260903081619 59 305 0.0 0.0 0.00 0.00 0.00 53 1025.6
20260903081113 59 305 0.0 0.0 0.00 0.00 0.00 54 1025.6
20260903080606 59 305 0.0 0.0 0.00 0.00 0.00 56 1025.6
20260903080141 59 305 0.0 0.0 0.00 0.00 0.00 54 1025.6
20260903075614 60 305 0.0 0.0 0.00 0.00 0.00 52 1025.7
20260903075107 60 305 0.0 0.0 0.00 0.00 0.00 55 1025.7
20260903074622 60 305 0.0 3.0 0.00 0.00 0.00 53 1025.7
20260903074115 60 20 0.0 3.0 0.00 0.00 0.00 53 1025.7
20260903073614 60 288 0.0 0.0 0.00 0.00 0.00 53 1025.7
20260903073127 60 288 0.0 0.0 0.00 0.00 0.00 53 1025.7
20260903072620 61 288 0.0 0.0 0.00 0.00 0.00 51 1025.6
20260903072114 61 288 0.0 0.0 0.00 0.00 0.00 52 1025.7
20260903071628 62 288 0.0 0.0 0.00 0.00 0.00 51 1025.7
20260903071101 62 288 0.0 0.0 0.00 0.00 0.00 48 1025.6
20260903070636 63 288 0.0 0.0 0.00 0.00 0.00 49 1025.5
20260903070109 64 288 0.0 0.0 0.00 0.00 0.00 47 1025.5
20260903065603 65 288 0.0 0.0 0.00 0.00 0.00 45 1025.5
20260903065117 65 288 0.0 1.0 0.00 0.00 0.00 40 1025.6
20260903064634 66 288 0.0 2.0 0.00 0.00 0.00 42 1025.5
20260903064107 66 288 1.0 3.0 0.00 0.00 0.00 39 1025.6
20260903063620 67 148 0.0 3.0 0.00 0.00 0.00 38 1025.5
20260903063114 67 148 0.0 6.0 0.00 0.00 0.00 38 1025.5
20260903062608 67 156 4.0 6.0 0.00 0.00 0.00 36 1025.5
20260903062102 68 147 2.0 4.0 0.00 0.00 0.00 37 1025.4
20260903061616 68 82 0.0 0.0 0.00 0.00 0.00 37 1025.3
20260903061111 68 119 0.0 0.0 0.00 0.00 0.00 37 1025.3
20260903060608 68 119 0.0 1.0 0.00 0.00 0.00 36 1025.3
20260903055635 68 233 1.0 3.0 0.00 0.00 0.00 37 1025.2
20260903055129 68 278 1.0 2.0 0.00 0.00 0.00 38 1025.2
20260903054602 68 99 1.0 5.0 0.00 0.00 0.00 37 1025.2
20260903054115 69 74 2.0 5.0 0.00 0.00 0.00 37 1025.2
20260903053629 69 24 1.0 3.0 0.00 0.00 0.00 37 1025.2
20260903053102 69 24 1.0 3.0 0.00 0.00 0.00 34 1025.2
20260903052616 69 56 0.0 3.0 0.00 0.00 0.00 35 1025.3
20260903052114 69 31 1.0 3.0 0.00 0.00 0.00 35 1025.3
20260903051628 69 11 1.0 3.0 0.00 0.00 0.00 34 1025.3
20260903051102 69 342 1.0 4.0 0.00 0.00 0.00 35 1025.3